Temp
24 22 21 21 24 25 25 23 23 24 24 24 24 24 25 25 25 25 25 25 25 25 25 25 25 25 25 25 24 24 24 24 24
21 23 24 23 22 24 24 24 23 24 24 24 24 24 24 24 25 25 25 25 25 25 25 25 25 25 25 24 24 24 24 24 24
21 21 22 22 22 24 25 25 24 24 24 24 25 25 24 24 24 25 25 25 25 25 25 25 25 25 24 24 25 24 24 24 24
20 21 22 21 21 22 25 25 25 24 23 24 23 24 24 24 24 24 25 25 25 25 25 25 25 25 24 25 25 24 24 24 24
20 20 21 20 20 20 22 25 25 24 23 23 24 25 24 24 24 24 24 25 25 24 25 25 25 24 25 24 24 24 24 24 23
20 20 20 20 19 18 19 21 24 24 24 24 23 23 23 23 24 23 24 24 24 24 24 24 24 24 24 24 24 24 24 24 23
20 19 20 19 18 18 18 19 21 23 23 23 23 22 23 23 23 23 23 24 24 24 24 24 24 24 24 24 24 24 24 24 23
19 19 20 19 18 17 18 19 19 20 20 22 23 23 23 23 23 24 23 23 24 24 24 24 24 24 24 24 24 24 24 24 23
19 18 19 19 19 18 18 18 19 19 19 19 20 21 22 22 22 23 23 24 24 24 24 24 24 24 24 24 24 24 24 24 23
19 18 18 18 17 18 17 18 18 19 19 19 19 19 20 20 21 20 22 24 24 24 24 24 24 24 24 24 23 23 23 24 23
19 18 17 17 17 17 17 18 18 19 18 19 19 20 20 21 21 20 20 20 24 24 24 24 24 23 23 22 22 22 22 22 21
18 18 17 17 17 17 17 18 18 18 18 18 19 19 20 21 21 20 19 20 22 23 23 22 21 19 19 19 19 19 19 19 19
18 18 18 17 17 17 17 18 18 19 18 19 19 19 18 19 18 19 19 19 19 19 19 18 18 18 18 18 18 18 18 19 18
18 17 17 17 17 16 16 16 17 18 18 18 19 19 19 19 19 19 19 19 18 19 18 17 17 17 16 17 17 17 17 17 17
17 17 17 16 16 15 15 16 17 17 17 18 18 18 18 18 18 18 18 18 17 17 16 16 15 15 14 14 15 16 16 16 16
16 17 17 17 16 16 15 16 16 16 16 18 18 18 17 18 18 17 18 18 17 17 16 15 14 14 13 13 13 14 15 15 15
15 16 16 17 17 15 15 15 15 15 15 16 17 16 16 16 16 16 16 16 16 15 15 14 14 14 13 13 13 13 13 14 14
16 16 17 17 17 16 15 15 15 15 15 16 16 15 14 15 16 15 15 15 15 15 15 15 15 15 15 14 13 13 13 13 13
16 16 17 17 17 17 16 15 15 15 15 15 15 15 14 14 14 14 14 14 13 14 15 15 15 15 15 14 14 13 13 13 13
16 16 17 17 17 17 16 15 15 15 15 15 14 14 14 14 14 13 13 13 13 12 12 13 13 14 14 14 14 14 13 13 14
Height
780 783 788 788 787 788 794 798 803 806 808 812 817 819 820 822 825 827 829 830 831 833 835 836 839 839 840 840 841 842 843 843 843
787 783 781 784 785 787 787 793 795 800 803 807 811 814 818 820 822 825 827 829 830 831 833 834 836 836 838 839 840 841 842 842 843
785 783 780 780 780 782 782 784 789 794 799 802 805 810 814 817 819 821 824 826 828 830 832 833 833 833 835 837 838 838 839 840 840
783 779 775 777 778 778 778 780 783 787 794 798 802 805 810 813 816 818 821 822 824 826 829 831 833 833 834 835 835 836 837 838 838
772 777 775 776 778 777 774 776 779 783 790 794 795 799 804 808 812 816 818 819 821 824 826 828 830 831 832 833 833 834 834 834 836
766 770 771 775 775 776 775 775 776 779 784 788 792 796 800 804 808 811 814 816 819 821 823 825 827 828 829 829 830 831 832 832 833
775 780 776 778 778 775 774 774 774 777 781 785 790 793 797 800 802 806 810 813 815 817 819 820 821 822 824 826 826 828 829 829 829
779 780 778 777 779 777 774 774 776 778 781 783 786 788 793 796 799 802 806 809 811 813 814 815 816 818 819 821 822 823 824 825 825
779 781 780 778 777 778 777 775 779 779 781 784 784 783 786 791 796 798 801 804 806 809 810 812 814 815 816 817 818 820 821 822 824
779 779 782 780 778 777 776 777 777 780 779 784 785 782 782 787 791 794 797 800 801 802 805 808 810 812 813 814 815 816 818 820 821
777 780 780 780 780 778 777 772 775 775 779 776 774 781 781 783 785 789 794 799 797 799 800 803 806 808 810 810 812 813 815 816 818
776 780 781 781 782 783 781 777 774 774 773 777 774 772 773 775 778 784 792 795 793 794 797 798 800 803 806 807 809 810 810 812 814
777 779 779 781 782 781 778 775 774 773 775 772 772 773 775 777 779 782 789 791 789 789 794 796 799 802 805 805 807 809 810 810 811
777 780 781 782 783 782 780 779 775 773 772 774 775 774 774 777 779 781 784 785 786 785 792 795 799 801 805 805 807 807 808 809 811
777 781 784 784 782 781 778 776 776 775 775 776 775 775 775 774 777 781 783 787 784 781 795 788 798 803 805 807 808 808 808 809 812
777 781 782 782 781 781 780 778 776 776 776 777 776 776 776 775 780 781 782 783 789 788 794 799 803 807 809 811 812 811 812 811 814
775 778 779 779 780 781 780 781 779 778 779 778 778 779 780 783 784 785 789 792 793 797 800 803 807 808 809 811 814 816 817 816 816
770 772 775 776 778 780 781 781 780 782 782 782 782 782 784 785 787 791 795 797 798 800 805 805 806 808 809 811 815 816 817 818 820
768 771 772 774 776 779 780 781 782 781 783 784 784 785 788 791 793 793 800 798 800 800 806 810 811 811 813 813 814 816 817 818 820
767 769 771 771 775 780 781 783 783 782 782 784 787 789 790 791 794 796 799 800 799 803 807 814 815 814 815 819 817 817 819 819 822
Wind_Speed
3 4 5 7 18 25 26 27 30 32 35 35 34 31 29 25 22 22 19 17 17 18 17 15 16 16 14 11 8 7 8 7 6
4 6 7 11 13 20 26 26 32 36 36 38 38 35 31 28 25 23 22 20 19 16 17 16 16 15 15 13 11 10 9 9 9
5 5 8 6 7 21 29 33 35 38 38 41 41 37 35 33 30 27 22 20 21 17 13 15 13 13 15 14 14 12 11 11 11
5 6 3 4 2 4 27 31 32 36 36 37 35 39 36 36 34 31 28 25 22 19 17 18 15 13 14 16 18 15 13 13 10
5 6 4 3 1 4 1 24 27 30 30 32 40 41 39 37 35 34 31 29 25 21 20 20 19 17 17 16 14 13 13 13 11
7 1 4 5 4 4 3 3 23 25 29 36 33 35 37 38 37 36 35 32 29 24 21 20 20 19 17 17 15 15 12 12 11
6 1 3 4 1 4 8 9 5 16 26 24 25 29 31 33 36 37 37 35 33 30 27 25 24 21 19 18 16 13 12 12 12
4 3 2 6 4 2 9 9 11 9 4 20 26 28 29 33 35 35 37 36 34 32 32 29 26 22 19 17 16 16 15 14 13
4 3 2 1 6 5 4 10 7 8 5 4 12 23 29 29 25 32 37 36 33 32 31 27 26 23 22 20 17 15 14 14 16
4 4 4 3 4 5 7 7 5 4 5 4 3 6 9 6 9 17 33 38 34 31 30 28 28 26 23 22 17 15 14 16 16
0 3 4 3 1 7 5 8 3 7 10 11 10 14 15 14 9 13 22 36 37 33 30 27 23 22 18 17 17 16 15 16 14
2 2 2 2 3 4 5 6 6 6 11 20 22 24 27 20 22 30 23 27 35 30 27 22 20 15 11 9 8 6 7 7 7
3 2 3 2 1 3 4 6 5 6 4 2 9 16 17 13 17 19 22 17 17 15 16 15 10 10 7 6 2 4 6 7 6
3 3 7 5 3 1 4 7 7 5 5 3 4 7 11 16 12 8 5 5 13 10 12 13 12 9 6 7 6 4 4 4 6
5 6 5 4 6 7 8 2 7 7 8 8 9 12 13 12 12 9 8 9 10 17 16 17 15 14 13 11 10 8 7 6 6
5 7 6 5 7 8 9 7 3 8 8 12 12 14 13 16 13 12 14 14 15 15 10 13 15 15 15 13 11 11 10 10 10
7 10 7 7 7 7 8 7 5 5 4 10 16 17 19 17 18 16 14 15 16 17 17 19 18 16 14 11 9 10 11 12 12
10 14 12 9 10 6 5 5 6 5 6 9 13 15 16 21 22 20 19 17 17 16 14 14 16 15 15 14 11 11 12 12 12
17 17 14 11 10 9 6 4 6 8 5 7 12 15 15 15 17 19 17 20 18 15 12 10 11 12 9 13 15 15 15 14 13
19 16 16 17 14 9 6 6 7 7 7 8 9 12 12 13 15 16 17 17 19 20 14 11 11 12 15 16 19 17 16 15 13
Wind_Direction
188 153 237 203 196 194 196 188 193 198 201 203 206 209 210 210 213 210 214 228 231 225 225 241 249 236 230 226 223 241 242 255 261
38 303 206 206 220 200 196 195 193 199 202 207 210 213 216 213 211 215 220 225 219 224 232 242 248 236 230 222 232 235 249 260 260
68 308 208 174 194 212 203 201 200 201 206 208 212 216 219 220 216 213 217 218 213 221 230 237 235 224 220 229 240 244 252 262 266
86 23 194 165 334 297 210 204 200 200 203 207 211 216 217 220 220 218 216 216 218 223 227 229 231 226 230 243 249 242 247 256 264
72 101 236 180 326 326 275 204 203 200 200 204 212 216 217 221 225 221 219 221 219 219 226 228 229 230 243 236 240 245 251 254 252
84 334 139 167 126 61 29 182 201 195 200 214 211 212 215 218 226 227 222 221 222 222 221 222 223 231 236 234 240 243 258 255 255
86 18 138 152 183 120 100 71 143 199 204 210 206 209 213 219 223 228 228 227 225 225 225 228 229 231 238 241 252 261 266 266 267
88 123 109 167 163 141 119 97 82 88 167 203 207 211 215 222 230 229 231 231 228 228 229 233 234 235 239 244 253 260 266 268 270
166 213 204 37 178 163 126 115 114 103 90 91 208 206 210 218 232 233 234 233 231 230 231 234 235 237 244 246 252 258 261 267 266
171 219 228 153 125 143 213 220 228 181 160 207 233 164 194 224 263 257 244 239 233 230 231 237 242 241 242 243 244 244 247 258 262
323 206 227 225 233 129 125 110 153 202 228 244 258 249 242 222 287 312 296 251 234 233 231 236 238 230 222 221 226 232 243 253 258
205 208 195 213 224 190 190 187 182 187 198 215 214 227 226 225 213 275 290 257 235 227 225 210 196 191 208 218 233 264 260 219 223
142 136 103 162 281 284 270 265 231 219 232 244 229 236 211 219 211 221 259 236 212 181 187 169 167 154 157 159 178 202 199 184 202
95 81 100 105 75 357 290 257 227 187 131 147 117 178 177 183 155 127 151 186 187 164 159 144 132 130 132 139 139 134 158 178 183
98 105 96 85 64 41 8 356 182 146 139 154 145 121 123 127 150 162 161 138 118 124 149 142 137 133 118 116 113 111 117 131 142
139 149 139 103 83 54 33 42 75 132 148 158 164 162 144 137 153 154 158 153 159 139 150 136 136 131 119 103 96 101 104 109 115
158 164 163 132 85 60 57 47 55 80 107 143 139 133 131 128 128 133 139 144 153 155 158 153 151 142 135 126 121 118 117 117 118
190 171 172 159 126 102 74 75 82 78 122 150 136 130 134 135 138 141 140 136 139 143 153 157 159 155 151 152 148 136 127 120 118
179 175 168 148 133 121 96 108 103 107 114 152 146 144 149 146 145 140 145 139 129 132 143 158 160 149 157 147 138 131 126 120 114
180 180 171 152 148 153 155 141 112 108 110 140 161 161 156 152 152 148 147 139 133 122 119 136 141 138 133 131 127 124 123 116 110